Location: Unspecified
(0.0000°N, 0.0000°E)
Time: 21:53:47
(UTC+00:00)

deb r/b Ablestar - Visible Passes

Search period start: 09 June 2026 00:00
Search period end: 19 June 2026 00:00
Orbit: 881 x 1002 km, 67.2° (Epoch: 8 June)

Date Brightness Start Highest point End Pass type
(mag) Time Alt. Az. Time Alt. Az. Time Alt. Az.
14 Jun ? 21:36:30 10° NNW 21:36:31 10° NNW 21:36:31 10° NNW visible
16 Jun ? 20:21:09 10° NNE 20:22:53 17° NNE 20:22:53 17° NNE visible
17 Jun ? 20:35:23 10° N 20:38:08 26° N 20:38:08 26° N visible
18 Jun ? 20:50:17 10° NNW 20:53:26 31° NNW 20:53:26 31° NNW visible
